Gainesville, GA

4:10 AM EDT on October 17, 2017 (GMT -0400)
Gilmer Memorial

Weather History for KGVL - December, 2012

Change the Weather History Date:

Wednesday, December 5, 2012

  Actual Average Record
Temperature  
Mean Temperature 60 °F 46 °F  
Max Temperature 64 °F 55 °F 72 °F (1933)
Min Temperature 57 °F 38 °F 15 °F (1935)
Degree Days  
Heating Degree Days 4 19  
Month to date heating degree days 92  
Since 1 July heating degree days 627  
Growing Degree Days 10 (Base 50)    
Moisture  
Dew Point 54 °F    
Average Humidity 79    
Maximum Humidity 88    
Minimum Humidity 68    
Precipitation  
Precipitation 0.00 in 0.17 in 1.88 in (1945)
Month to date precipitation 0.87  
Year to date precipitation 50.35  
Snow  
Snow 0.00 in - - ()
Month to date snowfall  
Since 1 July snowfall  
Snow Depth -    
Sea Level Pressure  
Sea Level Pressure 30.17 in    
Wind  
Wind Speed 6 mph (WNW)    
Max Wind Speed 12 mph    
Max Gust Speed 17 mph    
Visibility 10 miles    
Events      
T = Trace of Precipitation, MM = Missing Value Source: NWS Daily Summary

Daily Weather History Graph

Daily Weather History Graph

Search for Another Location

Airport or City:

Trip Planner

Search our weather history database for the weather conditions in past years. The results will help you decide how hot, cold, wet, or windy it might be!

Date:

Astronomy

Dec. 05, 2012 Rise Set
Actual Time 7:27 AM EST 5:25 PM EST
Civil Twilight 6:59 AM EST 5:52 PM EST
Nautical Twilight 6:28 AM EST 6:24 PM EST
Astronomical Twilight 5:57 AM EST 6:54 PM EST
Moon No Moon Rise 12:01 PM EST (12/5)
Length of Visible Light 10h 53m
Length of Day
9h 58m
Waning Gibbous, 60% of the Moon is Illuminated
Dec 5
Waning Gibbous
Dec 6
Last Quarter
Dec 13
New
Dec 20
First Quarter
Dec 28
Full

Hourly Weather History & Observations

Time (EST) Temp. Dew Point Humidity Pressure Visibility Wind Dir Wind Speed Gust Speed Precip Events Conditions
12:53 AM 60.1 °F 51.1 °F 72% 30.19 in 10.0 mi SW 3.5 mph - N/A   Clear
1:53 AM 57.9 °F 52.0 °F 81% 30.19 in 10.0 mi West 4.6 mph - N/A   Scattered Clouds
2:53 AM 57.0 °F 52.0 °F 83% 30.19 in 10.0 mi WSW 3.5 mph - N/A   Mostly Cloudy
3:53 AM 57.9 °F 52.0 °F 81% 30.17 in 10.0 mi WNW 3.5 mph - N/A   Overcast
4:53 AM 57.0 °F 52.0 °F 83% 30.16 in 10.0 mi WNW 3.5 mph - N/A   Overcast
5:53 AM 57.0 °F 52.0 °F 83% 30.17 in 10.0 mi West 3.5 mph - N/A   Overcast
6:53 AM 57.0 °F 52.0 °F 83% 30.18 in 10.0 mi Calm Calm - N/A   Overcast
7:27 AM 57.2 °F 51.8 °F 82% 30.22 in 10.0 mi West 4.6 mph - N/A   Overcast
7:53 AM 57.9 °F 52.0 °F 81% 30.20 in 10.0 mi WSW 5.8 mph - N/A   Overcast
9:53 AM 63.0 °F 55.0 °F 75% 30.22 in 10.0 mi West 9.2 mph - N/A   Overcast
10:36 AM 62.6 °F 55.4 °F 77% 30.24 in 10.0 mi WNW 10.4 mph - N/A   Overcast
10:53 AM 64.0 °F 55.0 °F 73% 30.22 in 10.0 mi West 10.4 mph - N/A   Overcast
11:21 AM 64.4 °F 55.4 °F 73% 30.23 in 10.0 mi West 11.5 mph - N/A   Overcast
11:53 AM 64.0 °F 55.0 °F 73% 30.19 in 10.0 mi WNW 9.2 mph - N/A   Overcast
12:53 PM 64.0 °F 54.0 °F 70% 30.17 in 10.0 mi WNW 9.2 mph - N/A   Overcast
1:21 PM 62.6 °F 53.6 °F 72% 30.18 in 10.0 mi West 9.2 mph - N/A   Overcast
1:34 PM 64.4 °F 53.6 °F 68% 30.18 in 10.0 mi West 9.2 mph - N/A   Overcast
1:53 PM 62.1 °F 54.0 °F 75% 30.15 in 10.0 mi West 10.4 mph - N/A   Overcast
2:53 PM 63.0 °F 55.0 °F 75% 30.13 in 10.0 mi West 6.9 mph - 0.00 in   Overcast
3:53 PM 64.0 °F 55.0 °F 73% 30.12 in 10.0 mi WNW 6.9 mph - N/A   Mostly Cloudy
4:53 PM 63.0 °F 55.0 °F 75% 30.12 in 10.0 mi West 5.8 mph - N/A   Overcast
5:53 PM 61.0 °F 55.0 °F 81% 30.13 in 10.0 mi West 4.6 mph - N/A   Partly Cloudy
6:53 PM 60.1 °F 55.0 °F 83% 30.14 in 10.0 mi WNW 3.5 mph - N/A   Mostly Cloudy
7:53 PM 60.1 °F 55.0 °F 83% 30.14 in 10.0 mi WNW 3.5 mph - N/A   Overcast
8:53 PM 59.0 °F 55.0 °F 87% 30.14 in 10.0 mi NW 3.5 mph - N/A   Overcast
9:53 PM 59.0 °F 55.0 °F 87% 30.14 in 10.0 mi North 3.5 mph - N/A   Overcast
10:25 PM 59.0 °F 55.4 °F 88% 30.17 in 10.0 mi ENE 9.2 mph - N/A   Overcast
10:53 PM 57.9 °F 52.0 °F 81% 30.15 in 10.0 mi East 11.5 mph - N/A   Overcast
11:02 PM 57.2 °F 51.8 °F 82% 30.17 in 10.0 mi East 11.5 mph 17.3 mph N/A   Overcast
11:53 PM 57.9 °F 52.0 °F 81% 30.15 in 10.0 mi ENE 11.5 mph - N/A   Overcast